Hourly Data Report for July 21, 2021

TORONTO CITY CENTRE
ONTARIO
Current Station Operator: NAVCAN

43°37'39.000" N
79°23'46.000" W
76.80 m
6158359
71265
YTZ

Download Data

Hourly Data (July 2021)
Hourly Data Report for July 21, 2021
TIME
LST
Temp Definition
°C
Dew Point Definition
°C
Rel Hum Definition
%
Precip. Amount Definition
mm

Wind Dir Definition
10's deg

Wind Spd Definition
km/h
Visibility Definition
km
Stn Press Definition
kPa
Hmdx Definition


Wind Chill Definition


Weather Definition


00:00 20.5 LegendMM LegendMM 0.0 2 15 16.1 100.48     LegendNANA
01:00 19.6 LegendMM LegendMM 0.0 3 13 16.1 100.51     LegendNANA
02:00 18.8 LegendMM LegendMM 0.0 3 17 16.1 100.51     LegendNANA
03:00 18.1 LegendMM LegendMM 0.0 35 11 16.1 100.52     LegendNANA
04:00 17.5 13.7 78 0.0 36 21 16.1 100.55     LegendNANA
05:00 17.1 LegendMM LegendMM 0.0 36 15 16.1 100.58     LegendNANA
06:00 17.0 LegendMM LegendMM 0.0 34 15 16.1 100.64     LegendNANA
07:00 18.2 LegendMM LegendMM 0.0 33 15 16.1 100.67     LegendNANA
08:00 20.0 LegendMM LegendMM 0.0 33 15 16.1 100.72     LegendNANA
09:00 21.5 LegendMM LegendMM 0.0 33 15 16.1 100.77     LegendNANA
10:00 22.2 LegendMM LegendMM 0.0 35 21 16.1 100.78     LegendNANA
11:00 LegendMM LegendMM LegendMM 0.0 34 13 16.1 LegendMM     LegendNANA
12:00 24.2 LegendMM LegendMM 0.0 35 15 16.1 100.78     LegendNANA
13:00 24.4 LegendMM LegendMM 0.0 36 15 16.1 100.79     LegendNANA
14:00 24.7 8.9 36 0.0 36 21 16.1 100.77 25   LegendNANA
15:00 24.7 9.4 38 0.0 32 11 16.1 100.78 26   LegendNANA
16:00 25.2 10.7 40 0.0 29 15 16.1 100.77 27   LegendNANA
17:00 24.6 11.5 43 0.0 32 15 16.1 100.77 27   LegendNANA
18:00 23.8 12.0 47 0.0 32 18 16.1 100.80 26   LegendNANA
19:00 22.3 11.0 48 0.0 32 15 16.1 100.85     LegendNANA
20:00 21.3 10.4 49 0.0 34 15 16.1 100.92     LegendNANA
21:00 20.5 10.1 51 0.0 35 18 16.1 100.99     LegendNANA
22:00 19.9 10.4 54 0.0 34 11 16.1 101.01     LegendNANA
23:00 19.2 11.1 59 0.0 33 15 16.1 101.03     LegendNANA

Notes on Data Quality.

Legend

  • E = Estimated
  • M = Missing
  • NA = Not Available*
  • [empty] = Indicates an unobserved value
Date modified: